Tracking 31027 objects as of 19-Jul-2025
HD Live streaming from Space Station
objects crossing your sky now

SL-8 DEB

Track SL-8 DEB now!
10-day predictions


NORAD ID: 27746
Int'l Code: 1991-009DB
Perigee: 1,483.6 km
Apogee: 1,763.6 km
Inclination: 74.1 °
Period: 118.6 minutes
Semi major axis: 7994 km
RCS: 0.0277 m2 (small)
Launch date: February 12, 1991
Source: Commonwealth of Independent States (former USSR) (CIS)
Launch site: PLESETSK MISSILE AND SPACE COMPLEX (PKMTR)

Note: This is SATELLITE DEBRIS
Your satellite tracking list
ATLAS 5 CENTAUR DEB
Track 1 satellite(s)




NASA's NSSDC Master Catalog

Two Line Element Set (TLE):
1 27746U 91009DB  25198.81206796 -.00000102  00000-0 -87572-3 0  9996
2 27746  74.0997 128.9772 0175116 174.6942 216.5569 12.14536858533169
Source of the keplerian elements: AFSPC